STARLINK-11330, 62011

Orbit data source: Space-Track

STARLINK-11330, 62011 is a payload satellite owned by SpaceX/Seattle (US) in LEO that was launched on Mon, 18 Nov 2024 UTC via an FALCON 9 launch vehicle from the Air Force Western Test Range (AFWTR). Payload-class satellites include a variety of spacecraft equipped with specific instruments for various scientific and technological missions. These include communications satellites like Starlink; space stations such as the ISS; scientific satellites like the Hubble; Earth observation satellites from companies like Planet Labs, Umbra, and HawkEye 360; GPS; miniature CubeSats for education and research; and military/defense satellites.

Not visible in the next 10 days
Identifier
62011, 2024-213D
Orbit
LEO
Country
Flag of USUS
Related business
Manufacturer
SpaceX/Seattle
Mission
Operational Commercial Communications
Bus & Motor
STARLINK V2MD, Unknown motor
Mass
960 kg wet, ~910 kg dry
Launch date (UTC)
2024-11-18 (1 year ago)
Launch vehicle
FALCON 9
Launch site
Air Force Western Test Range (AFWTR)
Object type
Payload
Rocket body
Debris
Shape & HBR
Box + 2 Pan, 18.1 m
Radar Cross Section
36.964 m², Large (>1 m²)

Expand to show TLE details & history
Last TLE update: 16 hours ago

TLE from 16 hours ago
0 STARLINK-11330
1 62011U 24213D   25354.94049235  .00186812  00000-0  15087-2 0  9996
2 62011  53.1586  69.6962 0000814  98.7964 261.3146 15.69768568 62545
Epoch: 2025-12-20T22:34Z
TLE epoch observation values (Epoch: 2025-12-20T22:34:18.539Z)
Latitude
-0.00001°
Longitude
1.35886°
Altitude
360.557 km
Speed
7.694 km/s
True Right ascension
04h 38m 47s
True Declination
0° 00' 00"
Sunlit
Object was in full shadow at epoch
Visualization orbit readout
Latitude
Unknown
Longitude
Unknown
Altitude
Unknown
Speed
Unknown
Apparent Right ascension
Unknown
Apparent Declination
Unknown
Sunlit
N/A
Visualization observer readout
Local Sidereal Time
13:46:11
Azimuth
Unknown
Elevation
Unknown
Doppler factor
Unknown
Orbital elements
Apogee altitude
360.369 km
Perigee altitude
359.272 km
Semi-major axis
6,737.957 km
Eccentricity
0.00008
Inclination
53.1586°
RAAN
69.6962°
Arg. of periapsis
98.7964°
True anomaly
261.30538°
Mean anomaly
261.3146°
Eccentric anomaly
261.30999°
Mean motion
3.9242 °/min
Orbital period
91.74 mins
BSTAR
0.0015087
Loading maneuver chart data...
Computing Atmospheric mass density...
Loading historical data...
Loading historical data...
Loading historical data...
Loading historical data...
Loading historical data...
Loading historical data...
Loading historical data...

Documentation

Showing up to 5 results
|